Погода во Фрайзинге

Германия     48°24′16″N   11°44′49″E
темп.,
°C
ветер,
м/с
пор.,
м/с
влажн.,
%
обл.,
%
осадки,
мм/ч
давл.,
гПа
погр.,
м
17 октября, вс
вс1723:00+6в22883 0.0 102213
02:00+5вюв11925 0.0 102210
05:00+4вюв119432 0.0 102110
08:00+4юв119514 0.0 102210
11:00+9юв11815 0.0 1022310
14:00+13ю116910 0.0 1020725
17:00+13з00739 0.0 101946
20:00+8св118498 0.0 102110
18 октября, пн
пн1823:00+7ююз1188100 0.0 102310
02:00+6юз2291100 0.0 102311
05:00+6зюз2293100 0.0 102419
08:00+5зюз22942 0.0 102514
11:00+10з11781 0.0 1025368
14:00+14зсз11621 0.0 1024780
17:00+13св0169100 0.0 102410
20:00+9юв118082 0.0 102510
19 октября, вт
вт1923:00+8юв2284100 0.0 102612
02:00+8ююв2286100 0.0 102615
05:00+7ю228999 0.0 102621
08:00+8ю2285100 0.0 102621
11:00+12ююз346899 0.0 1026227
14:00+16юз3457100 0.0 1024528
17:00+14юз2372100 0.0 102352
20:00+12зюз3971100 0.0 1024315
20 октября, ср
ср2023:00+11ююз3882100 0.1 1024216
02:00+11ю247381 0.1 102279
05:00+11ююв227684 0.0 102029
08:00+10юв337527 0.0 101842
11:00+15ююв346170 0.0 1016219
14:00+19ююз3558100 0.0 1013414
17:00+18з496799 0.0 1012266
20:00+14зюз41075100 0.0 1013228
21 октября, чт
чт2123:00+15юз51276100 0.0 1012599
02:00+16зюз111975100 0.2 10111097
05:00+14зюз102071100 0.0 10111585
08:00+12з81672100 0.1 10121177
11:00+14з71769100 0.0 10131442
14:00+14з71467100 0.0 10121453
17:00+12зюз4877100 0.2 1011487
20:00+10юз51083100 0.3 1011312